Location: Dresden
(51.0483°N, 13.7137°E)
Time: 12:47:39
(UTC+01:00)

ISS - Visible Passes

Search period start: 22 January 2018 00:00
Search period end: 01 February 2018 00:00
Orbit: 402 x 407 km, 51.6° (Epoch: 22 January)

Date Brightness Start Highest point End Pass type
(mag) Time Alt. Az. Time Alt. Az. Time Alt. Az.
26 Jan -1.6 18:55:07 10° SSW 18:56:24 17° S 18:56:24 17° S visible
27 Jan -1.7 18:03:46 10° S 18:05:33 14° SE 18:06:25 13° ESE visible
27 Jan -1.0 19:38:18 10° SW 19:39:05 16° SW 19:39:05 16° SW visible
28 Jan -3.0 18:46:10 10° SW 18:49:02 37° SSE 18:49:02 37° SSE visible
29 Jan -2.4 17:54:14 10° SSW 17:56:58 25° SSE 17:58:54 15° E visible
29 Jan -1.8 19:29:53 10° WSW 19:31:34 28° WSW 19:31:34 28° WSW visible
30 Jan -3.7 18:37:34 10° WSW 18:40:47 61° SSE 18:41:23 49° ESE visible
30 Jan -0.2 20:13:59 10° W 20:14:02 10° W 20:14:02 10° W visible
31 Jan -3.1 17:45:20 10° SW 17:48:27 42° SSE 17:51:09 13° E visible
31 Jan -2.5 19:21:32 10° W 19:23:48 41° W 19:23:48 41° W visible
